Other Surface Observations
Issued by NWS

Home | Current Version | Previous Version | Text Only | Print | Product List | Glossary On
Versions: 1 2 3 4 5 6 7 8 9 10 11 12 13 14 15 16 17 18 19 20 21 22 23 24 25 26 27 28 29 30 31 32 33 34 35 36 37 38 39 40 41 42 43 44 45 46 47 48 49 50
000
SXUS52 KTAE 302018
OSOTAE
OSOTAE
North Florida/South Alabama/Southwest Georgia Weather Roundup
National Weather Service Tallahassee Florida
400 PM EDT MON MAR 30 2015

Note: "fair" indicates few or no clouds below 12,000 feet with no
significant weather and/or obstructions to visibility.

!FLZ017-115-028-034-025-302100
...North Florida...

CITY           SKY/WX    TMP DP  RH WIND       PRES   REMARKS
TALLAHASSEE    PTSUNNY   77  57  50 W12G22    30.15F THUNDER
APALACHICOLA   CLOUDY    76  59  55 SW13      30.20F
PERRY          FAIR      72  56  57 S13G22    30.20F
CROSS CITY       N/A     75  55  49 W9        30.20F
JACKSONVILLE   PTSUNNY   74  53  48 W14       30.13F
$$

!FLZ112-006-005-002-011-302100
...Florida Panhandle...

CITY           SKY/WX    TMP DP  RH WIND       PRES   REMARKS
MARIANNA       FAIR      73  66  78 S7        30.14F
BONIFAY        MOCLDY    74  63  68 CALM      30.15F THUNDER
PANAMA CITY NW PTSUNNY   73  62  68 SW15      30.15F
TYNDALL AFB    FAIR      73  64  73 SW13      30.18F
TYND DRONE APT MOCLDY    72  65  78 SW12G17   30.18F
DE FUNIAK SPR  CLOUDY    74  62  65 SW8G24    30.15F
EGLIN AFB      MOSUNNY   76  63  64 SW14G28   30.16F
DESTIN         FAIR      74  64  71 SW7G21    30.17F
HURLBURT       FAIR      73  61  65 SW17G24   30.16F
CRESTVIEW      FAIR      79  57  46 W10       30.15F
PENSACOLA      PTSUNNY   78  64  61 SW18      30.15F
$$

!ALZ063-066-302100
...South Alabama...

CITY           SKY/WX    TMP DP  RH WIND       PRES   REMARKS
DOTHAN         PTSUNNY   75  58  55 W20       30.17F
OZARK CAIRNS   PTSUNNY   76  54  46 W16G24    30.14F
FT RUCKER HELI PTSUNNY   76  58  53 NW16G23   30.13F
RUCKER HELI 3  LGT RAIN  73  59  60 NW13G20   30.16F
RUCKER HELI 2  PTSUNNY   77  57  50 NW14G20   30.14F
FLORALA APT    PTSUNNY   77  59  53 N8        30.16F
ANDALUSIA      PTSUNNY   81  57  43 NW12G21   30.15F
TROY           PTSUNNY   73  60  63 NW13G20   30.16F
EUFALA         PTSUNNY   76  59  55 W8G20     30.12F
MOBILE         PTSUNNY   82  53  36 NW12      30.15F
$$

!GAZ120>161-302100
...Southwest and South Central Georgia...

CITY           SKY/WX    TMP DP  RH WIND       PRES   REMARKS
THOMASVILLE    CLOUDY    77  57  50 NW5       30.15F
BAINBRIDGE     LGT RAIN  73  64  73 SW7       30.15F
MOODY AFB      PTSUNNY   75  55  49 W17G25    30.12F
VALDOSTA       PTSUNNY   76  55  48 VRB7G18   30.14F
MOULTRIE       FAIR      73  59  60 W7        30.15F
BLAKELY        FAIR      79  61  53 W10G20    30.14F
ALBANY         FAIR      76  59  55 W14G25    30.14F
TIFTON         PTSUNNY   73  56  53 W9G21     30.12F
FITZGERALD     CLOUDY    73  55  53 W8        30.15F
CORDELE        MOCLDY    72  60  65 NW13G23   30.13F
AMERICUS       MOCLDY    70  59  68 NW15      30.14F
HOMERVILLE     PTSUNNY   77  59  53 W15       30.14F
$$

!GMZ750-755-770-775-302100
...Coastal and Buoy Obs...

STATION/POSITION TIME  TEMP    WIND        PRES    VSBY  WAVE
                       AIR SEA DIR/SP/G                  HT/PER
                 (UTC) (F)     (DEG/KT/KT) (MB)    (MI)  (FT/S)
KEATON BEACH     2000   65     220/ 10/ 13 1023.0F
CEDAR KEY        2000   67     240/  8/ 13 1023.7F
C TOWER          2000   67     210/ 14/ 15 1022.7F
APALACHICOLA BUO 1950   69 69  230/  8/ 10 1023.7F         1/ 5
PANAMA CITY BUOY 1950   71 74  250/ 12/ 14 1023.7F         1/ 2
MOBILE BUOY      1950   71 72  190/ 12/ 14 1023.2F         2/ 5
ORANGE BCH AL BU 1950   69 67  210/ 12/ 12 1021.6F         3/ 5
$$



USA.gov is the U.S. government's official web portal to all federal, state and local government web resources and services.